Orbital Elements at Epoch 2459200.5 (2020-Dec-17.0) TDB
Reference: JPL 28 (heliocentric ecliptic J2000)
Element | Value | Uncertainty (1-sigma) | Units |
e | .1432326676914172 | 3.4972e-08 | |
a | 2.548394914689691 | 1.091e-08 | au |
q | 2.183381512727445 | 9.1752e-08 | au |
i | 13.41549187012354 | 3.8071e-06 | deg |
node | 159.7108179848753 | 1.6146e-05 | deg |
peri | 81.9295136014297 | 2.677e-05 | deg |
M | 247.8013569584377 | 2.6774e-05 | deg |
tp | 2459663.609430972713 (2022-Mar-25.10943097) | 0.00011238 | TDB |
period | 1485.930583745277 4.07 | 9.5424e-06 2.613e-08 | d yr |
n | .2422724210256327 | 1.5558e-09 | deg/d |
Q | 2.913408316651937 | 1.2473e-08 | au |
|
| | Orbit Determination Parameters
Additional Information
|